weather.gov     
National Weather Service

Regional Weather Roundup
NWS Homepage
This page is being discontinued on March 12, 2014.
The same data is available at this site. Please update your bookmarks.
Thank you, and we apologize for the inconvenience.
Please send an email to SR-SRH.Webmaster@noaa.gov with any concerns.


Current Version
Previous Version:    01  02  03  04  05  06  07  08  09  10  11  12  13  14  15  16  17  18  19  20  21  22  23  24  25  26  27  28  29  30  
   31  32  33  34  35  36  37  38  39  40  41  42  43  44  45  46  47  48  49  50  51  52  53  54  55  56  57  58  59  60  
[Printable]
601
ASUS43 KJKL 171005
RWRJKL

EAST KENTUCKY HOURLY WEATHER ROUNDUP
NATIONAL WEATHER SERVICE JACKSON KY
600 AM EDT THU APR 17 2014

NOTE: "FAIR" INDICATES FEW OR NO CLOUDS BELOW 12,000 FEET WITH
NO SIGNIFICANT WEATHER AND/OR OBSTRUCTIONS TO VISIBILITY.

* THESE REPORTS ARE NOT UNDER NWS QUALITY CONTROL AND MAY NOT
  REPORT WEATHER SUCH AS PRECIPITATION AND FOG.

KYZ079-080-083-085-087-088-110-112-115-119-120-171100
...EASTERN KENTUCKY...

CITY           SKY/WX    TMP DP  RH WIND       PRES   REMARKS
JACKSON        PTCLDY    42  21  43 S5        30.33R
LONDON         PTCLDY    35  29  78 SE3       30.33R
SOMERSET*      MOCLDY    43  28  56 S6        30.34R
MONTICELLO*    PTCLDY    43  29  58 SE6       30.34R
WILLIAMSBURG*  CLEAR     37  30  75 SE6       30.34R WCI  33
MIDDLESBORO*   CLEAR     32  30  92 CALM      30.38R
HARLAN APT*    SUNNY     45  21  39 E3G18     30.36R
BLACK MTN*       N/A     32  19  59 S9          N/A  WCI  24
PIKEVILLE APT* CLEAR     43  21  42 SE8       30.35R
BIG SANDY*     SUNNY     42  23  46 SE7       30.34S
$$

KYZ035-036-041-042-044-050-067-078-099-171100
...CENTRAL KENTUCKY...

CITY           SKY/WX    TMP DP  RH WIND       PRES   REMARKS
MT STERLING*   MOCLDY    43  27  52 S7        30.33R
FLEMING/MASON* CLOUDY    40  25  54 S7        30.32R
DANVILLE*      MOCLDY    39  30  70 CALM      30.31R
LEXINGTON      MOCLDY    42  26  53 SE7       30.30R
FRANKFORT      MOCLDY    35  28  75 CALM      30.29R
$$

KYZ091>093-OHZ055-061-077-WVZ005-015-034-035-042-171100
...SOUTHERN OHIO/WEST VIRGINIA...

CITY           SKY/WX    TMP DP  RH WIND       PRES   REMARKS
COVINGTON      PTCLDY    38  23  55 S6        30.28R WCI  33
COLUMBUS       CLOUDY    40  19  43 SE8       30.32R WCI  34
DAYTON         PTCLDY    34  23  64 SE7       30.30R WCI  28
WILMINGTON     MOCLDY    37  24  59 SE7       30.29R WCI  32
HUNTINGTON     CLEAR     41  22  46 SE5       30.34R
CHARLESTON     CLEAR     43  21  41 SE5       30.36R
PINEVILLE*     CLEAR     35  28  74 MISG      30.44S
BECKLEY        CLEAR     35  15  44 SE13G26   30.39R WCI  26
BLUEFIELD      PTCLDY    36  15  42 SE8G20    30.40R WCI  30
$$

VAZ002-007-008-TNZ017-027-036-066-071-171100
...SOUTHWEST VIRGINIA/EAST TENNESSEE...

CITY           SKY/WX    TMP DP  RH WIND       PRES   REMARKS
WISE*          CLEAR     37  19  48 S9        30.36R WCI  31
ABINGDON*      CLEAR     37  22  54 E9        30.40R WCI  31
BRISTOL        CLEAR     32  22  66 CALM      30.40R
KNOXVILLE      CLEAR     37  32  82 NE3       30.35R
OAK RIDGE      PTCLDY    36  33  89 CALM      30.37R
CROSSVILLE     PTCLDY    43  26  51 S5        30.32R
NASHVILLE      PTCLDY    47  32  56 S7        30.29R
$$

...KEY TO REMARKS...
VSB - VISIBILITY IN MILES
WCI - WIND CHILL INDEX
HX  - HEAT INDEX

$$




U.S. Dept. of Commerce
NOAA National Weather Service
1325 East West Highway
Silver Spring, MD 20910
E-mail: w-nws.webmaster@noaa.gov
Page last modified: May 16, 2007
NATIONAL WEATHER SERVICE: for Safety, for Work, for Fun - FOR LIFE